Location: *
(51.8167°N, 12.5000°E)
Time: 02:14:26
(UTC+00:00)

NOSS 0 Rocket - Pass Details

Date: 16 September 2019
Orbit: 935 x 955 km, 70.0° (Epoch: 22 October)

Event Time Altitude Azimuth Distance (km) Brightness Sun altitude
Rises 18:56:11 0° 326° (NNW) 3,619 8.0 -14.7°
Reaches altitude 10° 18:58:43 10° 326° (NW) 2,673 7.2 -15.1°
Maximum altitude 19:04:55 77° 241° (WSW) 978 4.1 -15.9°
Enters shadow 19:10:04 16° 158° (SSE) 2,290 5.5 -16.6°
